Location: ??????
(38.0677°N, 22.9870°E)
Time: 16:54:57
(UTC+00:00)

Cosmos 1975 Rocket - Pass Details

Date: 23 May 2024
Orbit: 601 x 629 km, 82.5° (Epoch: 23 June)

Event Time Altitude Azimuth Distance (km) Brightness Sun altitude
Rises 02:12:33 0° 177° (S) 2,840 6.1 -10.6°
Reaches altitude 10° 02:14:46 10° 173° (S) 1,939 5.3 -10.3°
Maximum altitude 02:18:58 59° 94° (E) 700 3.6 -9.6°
Drops below altitude 10° 02:23:12 10° 15° (NNE) 1,951 6.4 -8.9°
Sets 02:25:27 0° 12° (NNE) 2,859 7.3 -8.6°
